Regional Weather Roundup
Issued by NWS Sterling, VA

Home | Current Version | Previous Version | Text Only | Print | Product List | Glossary Off
Versions: 1 2 3 4 5 6 7 8 9 10 11 12 13 14 15 16 17 18 19 20 21 22 23 24 25 26 27 28 29 30 31 32 33 34 35 36 37 38 39 40 41 42 43 44 45 46 47 48 49 50

184
ASUS41 KLWX 211910
RWRLWX

REGIONAL WEATHER ROUNDUP
NATIONAL WEATHER SERVICE BALTIMORE MD/WASHINGTON DC
300 PM EDT THU SEP 21 2017

Note: "FAIR" indicates few or no clouds below 12,000 feet
with no significant weather and/or obstructions to visibility.
 TC=TEMPERATURE CELSIUS

 * =Non NWS site. Station does not report precipitation (e.g. rain,
    snow, etc.), thunder, or fog.

DCZ001-MDZ009-015-VAZ040>042-051-053>054-212000-
WASHINGTON METRO

CITY           SKY/WX    TMP DP  RH WIND       PRES   REMARKS
WASHINGTON NAT PTSUNNY   87  64  46 N7        30.03S
DULLES         PTSUNNY   85  60  42 N10       30.04F
ANDREWS AFB    CLOUDY    82  62  49 N6        30.02S
FT BELVOIR     MOSUNNY   88  64  45 N7        30.03R
QUANTICO       MOSUNNY   82  70  66 SW6       30.03F
COLLEGE PARK*  CLOUDY    84  64  51 N3        30.02F
LEESBURG*      SUNNY     84  64  51 N8        30.05F
MANASSAS*      SUNNY     84  65  52 N7        30.03F
GAITHERSBURG*  MOSUNNY   83  65  54 CALM      30.06S

$$

MDZ006>007-011-014-212000-
BALTIMORE METRO

CITY           SKY/WX    TMP DP  RH WIND       PRES   REMARKS
BWI AIRPORT    PTSUNNY   87  65  47 W6        30.00F
MD SCIENCE CTR   N/A     86  63  45 MISG      30.00F
MARTIN STATE   MOSUNNY   84  72  65 NW8       30.02S
ANNAPOLIS      SUNNY     86  67  52 N6        30.00F
FORT MEADE*    MOSUNNY   82  63  51 N5        30.04F

$$

MDZ012-015-019>023-212000-
MARYLAND EASTERN SHORE

CITY           SKY/WX    TMP DP  RH WIND       PRES   REMARKS
OCEAN CITY     SUNNY     83  66  56 NE12      30.00S
SALISBURY      MOSUNNY   86  64  47 NE8       29.99F
CAMBRIDGE*     MOSUNNY   84  66  54 VRB7G14   30.00F
EASTON*        MOSUNNY   86  66  51 N7        30.04F

$$

MDZ017>025-212000-
SOUTHERN MARYLAND

CITY           SKY/WX    TMP DP  RH WIND       PRES   REMARKS
PATUXENT RIVER MOSUNNY   85  62  46 N8        30.01F
ST INIGOES     SUNNY     86  65  49 MISG      30.01S
LEONARDTOWN*   SUNNY     82  64  54 CALM      30.03F

$$

MDZ003>005-212000-
NORTH CENTRAL MARYLAND

CITY           SKY/WX    TMP DP  RH WIND       PRES   REMARKS
FREDERICK*     MOSUNNY   88  57  35 VRB3      30.07S
HAGERSTOWN APT SUNNY     86  59  39 VRB7      30.05F
WESTMINSTER*   MOSUNNY   86  64  48 N5        30.05F

$$

MDZ501>502-212000-
WESTERN MARYLAND

CITY           SKY/WX    TMP DP  RH WIND       PRES   REMARKS
OAKLAND*       MOSUNNY   73  57  56 W3        30.16F
CUMBERLAND*    MOSUNNY   88  57  35 NE6       30.10F

$$

VAZ025>031-212000-
SHENANDOAH VALLEY

CITY           SKY/WX    TMP DP  RH WIND       PRES   REMARKS
WINCHESTER*    SUNNY     82  61  47 CALM      30.06F
FRONT ROYAL*   SUNNY     82  63  51 NE5       30.05F
LURAY*         SUNNY     88  57  35 E3        30.05F
NEW MARKET*    MOSUNNY   87  55  34 CALM      30.04F
STAUNTON*      MOSUNNY   83  61  46 E5        30.09F
WAYNESBORO*    SUNNY     82  59  46 N5        30.10F

$$

WVZ021-048>050-054>055-212000-
EASTERN WEST VIRGINIA PANHANDLE

CITY           SKY/WX    TMP DP  RH WIND       PRES   REMARKS
MARTINSBURG    SUNNY     85  61  44 NW8       30.04F
PETERSBURG*    MOSUNNY   89  61  39 E6        30.07F

$$

VAZ036>039-050-212000-
CENTRAL FOOTHILLS

CITY           SKY/WX    TMP DP  RH WIND       PRES   REMARKS
CHARLOTTESVILL MOSUNNY   87  62  43 NW5       30.05F
CULPEPER*      SUNNY     87  63  45 N6        30.04F
ORANGE*        SUNNY     84  61  45 CALM      30.03F
GORDONSVILLE*  SUNNY     85  63  46 NE6       30.03F
WARRENTON*     MOSUNNY   88  58  36 N7G18     30.04S

$$

VAZ055>057-212000-
NORTH AND CENTRAL PIEDMONT

CITY           SKY/WX    TMP DP  RH WIND       PRES   REMARKS
FREDERICKSBRG* MOSUNNY   86  64  46 N6        30.01F
STAFFORD*      SUNNY     85  60  42 N7        30.07F

$$

NCZ024-NYZ072-PAZ021-071-VAZ022-071-212000-
OTHER REGIONAL OBSERVATIONS

CITY           SKY/WX    TMP DP  RH WIND       PRES   REMARKS
NEW YORK CITY  CLOUDY    79  64  60 VRB3      30.02S
PHILADELPHIA   PTSUNNY   86  60  41 N8        29.99S
PITTSBURGH     MOSUNNY   84  61  45 E3        30.09F
ROANOKE        MOSUNNY   84  63  49 E3        30.09F
RICHMOND       MOSUNNY   88  64  44 N7        30.01F
RALEIGH        MOSUNNY   87  64  46 N5        30.01F THUNDER

$$

ANZ530>537-212000-
MARINE OBSERVATIONS

STATION/POSITION TIME  TEMP    WIND        PRES
                       AIR SEA DIR/SP/G
                 (UTC) (F)     (DEG/KT/KT) (MB)
THOMAS PT LIGHT  1900   77 76   60/  5/  5   N/A
BALT KEY BRIDGE  1848   78     130/  6/  8 1016.0F
COVE POINT       1848   78     350/  5/  6 1017.1F
LEWISETTA        1848   80 76   90/  5/  7 1016.2F
SOLOMONS ISLAND  1842   81 77  340/  7/  9 1016.0F
PINEY POINT      1848          320/  8/  8   N/A

$$





USA.gov is the U.S. government's official web portal to all federal, state and local government web resources and services.